Location: �terpigny
(49.8910°N, 2.9249°E)
Time: 03:00:04
(UTC+00:00)

SWARM A - Pass Details

Date: 24 October 2021
Orbit: 424 x 429 km, 87.4° (Epoch: 05 December)

Event Time Altitude Azimuth Distance (km) Brightness Sun altitude
Rises 18:24:39 0° 181° (S) 2,390 8.0 -17.6°
Reaches altitude 10° 18:26:40 10° 181° (S) 1,530 7.0 -17.9°
Maximum altitude 18:29:59 89° 260° (W) 439 4.1 -18.4°
Drops below altitude 10° 18:33:20 10° 2° (N) 1,546 7.0 -19.0°
Sets 18:35:23 0° 3° (N) 2,420 8.0 -19.3°
